TimeCST,TemperatureF,Dew PointF,Humidity,Sea Level PressureIn,VisibilityMPH,Wind Direction,Wind SpeedMPH,Gust SpeedMPH,PrecipitationIn,Events,Conditions,WindDirDegrees,DateUTC
12:53 AM,48.0,37.9,68,30.09,10.0,Calm,Calm,-,N/A,,Clear,0,2013-02-19 06:53:00
1:53 AM,48.9,36.0,61,30.12,10.0,NNW,5.8,-,N/A,,Clear,330,2013-02-19 07:53:00
2:53 AM,46.9,35.1,63,30.12,10.0,North,3.5,-,N/A,,Clear,350,2013-02-19 08:53:00
3:53 AM,46.0,34.0,63,30.14,10.0,North,5.8,-,N/A,,Clear,350,2013-02-19 09:53:00
4:53 AM,44.1,34.0,68,30.17,10.0,North,3.5,-,N/A,,Clear,10,2013-02-19 10:53:00
5:53 AM,42.1,33.1,70,30.20,10.0,NNW,3.5,-,N/A,,Clear,340,2013-02-19 11:53:00
6:53 AM,41.0,33.1,73,30.23,10.0,North,3.5,-,N/A,,Clear,350,2013-02-19 12:53:00
7:53 AM,42.1,30.9,65,30.27,10.0,North,5.8,-,N/A,,Clear,10,2013-02-19 13:53:00
8:53 AM,46.0,30.0,54,30.29,10.0,NNE,9.2,-,N/A,,Clear,20,2013-02-19 14:53:00
9:53 AM,48.0,28.0,46,30.32,10.0,NE,5.8,-,N/A,,Clear,40,2013-02-19 15:53:00
10:53 AM,51.1,28.0,41,30.32,10.0,NE,6.9,-,N/A,,Clear,50,2013-02-19 16:53:00
12:53 PM,57.0,27.0,32,30.30,10.0,Variable,4.6,-,N/A,,Clear,0,2013-02-19 18:53:00
1:53 PM,57.9,27.0,31,30.27,10.0,NE,8.1,-,N/A,,Clear,40,2013-02-19 19:53:00
2:53 PM,60.1,27.0,28,30.24,10.0,North,5.8,-,N/A,,Clear,10,2013-02-19 20:53:00
3:53 PM,60.1,25.0,26,30.22,10.0,NE,5.8,-,N/A,,Clear,40,2013-02-19 21:53:00
4:53 PM,60.1,24.1,25,30.22,10.0,NE,5.8,-,N/A,,Clear,50,2013-02-19 22:53:00
6:53 PM,52.0,28.9,41,30.23,10.0,North,4.6,-,N/A,,Clear,10,2013-02-20 00:53:00
7:53 PM,48.9,33.1,54,30.24,10.0,Calm,Calm,-,N/A,,Clear,0,2013-02-20 01:53:00
8:53 PM,43.0,34.0,71,30.23,10.0,NNE,3.5,-,N/A,,Clear,20,2013-02-20 02:53:00
9:53 PM,44.1,32.0,63,30.25,10.0,Calm,Calm,-,N/A,,Clear,0,2013-02-20 03:53:00
10:53 PM,46.9,28.9,50,30.25,10.0,Calm,Calm,-,N/A,,Clear,0,2013-02-20 04:53:00
11:53 PM,48.0,28.9,48,30.25,10.0,ENE,3.5,-,N/A,,Mostly Cloudy,60,2013-02-20 05:53:00